Flag for U.S.A. Weather past 2 weeks in Tyler, Texas, U.S.A.

Now
87 °F

Scattered clouds.


Feels Like: 92 °F
Forecast: 74 / 92 °F
Wind: 9 mph from Southeast

Location: Tyler Pounds Field

Current Time: Aug 28, 2014 at 11:17:41 AM

Latest Report: Aug 28, 2014 at 10:53 AM


Visibility: 10 mi

Pressure: 29.98 "Hg

Humidity: 57%

Dew point: 70 °F

Location of TylerLocation

Historic Weather in Tyler — Graph

°F

Tyler temperature yesterday

Maximum temperature yesterday: 94 °F (at 2:53 PM)
Minimum temperature yesterday: 74 °F (at 5:53 AM)
Average temperature yesterday: 84 °F

Past Weeks' High & Low Weather Summary

 TemperatureHumidityPressure
High98 °F (Aug 25, 5:53 PM)94% (Aug 21, 4:53 AM)30.11 "Hg (Aug 21, 4:53 AM)
Low67 °F (Aug 14, 5:53 AM)23% (Aug 27, 5:53 PM)29.85 "Hg (Aug 18, 6:53 PM)
Average84 °F64%29.96 "Hg
* Reported Aug 13 10:53 AM — Aug 28 9:53 AM, Tyler, Weather by CustomWeather, © 2014

Note: Actual official high and low records may vary slightly from our data, if they occured in-between our weather recording intervals... More about our weather records

Advertising

Tyler weather history for previous 24 hours

 ConditionsComfort  
Time TempWeatherWind HumidityBarometerVisibility
9:53 AM
Aug 28
86 °FPartly sunny.7 mph61%29.97 "Hg10 mi
8:53 AM84 °FOvercast.No wind65%29.96 "Hg10 mi
7:53 AM78 °FPassing clouds.3 mph74%29.95 "Hg10 mi
6:53 AM75 °FPassing clouds.3 mph79%29.95 "Hg10 mi
5:53 AM74 °FPassing clouds.No wind79%29.95 "Hg10 mi
4:53 AM76 °FOvercast.6 mph74%29.95 "Hg10 mi
3:53 AM76 °FPassing clouds.7 mph74%29.95 "Hg10 mi
2:53 AM76 °FClear.5 mph72%29.96 "Hg10 mi
1:53 AM77 °FClear.5 mph66%29.96 "Hg10 mi
12:53 AM77 °FClear.6 mph66%29.97 "Hg10 mi
11:53 PM
Aug 27
77 °FClear.5 mph64%29.97 "Hg10 mi
10:53 PM79 °FClear.No wind56%29.98 "Hg10 mi
9:53 PM79 °FClear.No wind56%29.97 "Hg10 mi
8:53 PM84 °FClear.5 mph45%29.96 "Hg10 mi
7:53 PM87 °FSunny.6 mph39%29.95 "Hg10 mi
6:53 PM92 °FSunny.7 mph29%29.94 "Hg10 mi
5:53 PM94 °FSunny.10 mph23%29.94 "Hg10 mi
4:53 PM94 °FSunny.10 mph28%29.96 "Hg10 mi
3:53 PM94 °FSunny.7 mph29%29.98 "Hg10 mi
2:53 PM94 °FSunny.13 mph31%30.00 "Hg10 mi
1:53 PM92 °FPassing clouds.10 mph36%30.02 "Hg10 mi
12:53 PM92 °FSunny.10 mph33%30.03 "Hg10 mi
11:53 AM89 °FSunny.3 mph41%30.05 "Hg10 mi
Weather by CustomWeather, © 2014

See weather overviewHow to use our weather pages